Wetbulb
61.82 60.06 61.64 57.36 45.17 44.52 40.75 41.27 47.54 46.68 46.86 51.58 52.94 51.48 50.59 53.06 53.86 52.94 68.87 70.56 70.58 71.28 73.04 72.66 74.42 74.21 73.81 73.33 73.82 73.58 73.57 73.63 73.80 73.35 73.35 72.97 72.81 72.49 72.14 71.88 71.19 70.85 70.54 70.12 71.68 71.10 70.53 70.12 69.75
61.36 58.45 59.26 52.97 42.20 38.80 40.67 43.52 43.54 46.95 49.71 50.70 50.97 54.53 56.14 52.49 63.04 65.29 67.41 69.33 70.77 71.76 73.08 72.67 74.13 74.36 73.92 73.51 73.52 73.46 73.68 73.59 73.40 73.30 73.35 73.14 72.95 72.68 72.42 71.55 71.21 70.75 70.22 69.68 70.84 69.84 68.76 68.38 68.41
57.17 56.28 51.84 46.88 42.20 38.77 40.26 42.89 45.11 48.42 49.94 49.28 51.38 52.96 55.56 57.31 64.19 66.39 68.35 69.17 70.35 71.70 72.63 72.54 73.79 74.43 74.12 73.72 73.29 73.10 73.33 73.61 73.38 73.13 73.57 73.28 73.26 72.40 72.08 71.25 70.26 69.86 70.03 70.09 69.93 69.95 68.33 68.50 69.24
57.44 55.07 51.58 43.96 40.87 42.99 42.02 46.24 47.91 48.16 49.32 48.99 49.20 48.92 52.15 60.98 64.13 67.12 68.08 70.00 70.71 71.48 72.32 72.20 73.22 73.27 73.33 73.52 73.07 73.04 73.30 73.53 73.48 73.13 73.17 73.19 72.32 71.88 71.58 70.37 70.08 69.51 69.36 69.10 68.67 69.84 68.49 69.75 70.07
57.08 52.34 43.78 41.57 41.73 43.52 46.20 46.99 48.30 47.33 48.52 48.62 48.59 48.93 49.57 54.78 64.35 66.08 68.18 69.79 70.83 71.52 72.16 72.09 73.18 73.24 72.75 72.37 73.17 72.92 73.27 73.51 73.51 72.89 72.24 72.20 71.79 71.30 70.54 69.99 69.61 69.52 69.27 69.00 68.92 69.08 67.63 69.60 70.24
50.28 50.03 41.28 40.13 41.71 43.36 45.36 47.93 48.22 47.84 48.85 48.23 47.24 47.89 49.85 56.74 63.25 65.16 68.25 68.74 70.88 71.42 71.94 72.05 71.51 72.45 72.41 72.30 72.21 72.81 73.13 73.02 72.64 72.49 72.06 71.90 72.06 71.37 69.77 69.71 69.29 67.95 67.47 67.65 68.23 67.91 67.59 69.26 69.94
48.01 45.67 41.81 41.75 41.78 42.58 44.67 48.02 46.34 47.28 48.11 47.99 49.92 47.09 50.78 52.79 62.75 65.14 67.11 68.87 70.52 71.62 71.65 71.93 72.03 71.65 71.05 71.53 71.47 71.31 72.46 72.19 71.91 71.86 71.61 71.25 70.85 70.36 69.49 69.14 68.71 67.40 67.73 67.05 67.65 68.35 68.27 68.52 69.34
51.40 47.86 41.74 42.96 41.98 42.32 46.18 46.72 48.37 47.52 47.40 50.64 51.02 47.21 48.83 53.66 62.54 63.75 62.16 63.05 65.97 68.71 70.49 71.07 71.69 71.79 71.78 71.63 70.19 70.19 70.50 70.65 70.31 70.24 69.60 68.76 68.34 68.33 68.62 67.94 67.60 67.83 67.31 66.87 67.47 68.30 68.44 68.70 68.14
51.59 44.07 41.11 42.02 41.83 43.50 46.59 46.03 49.35 50.32 49.25 49.56 50.64 51.13 52.45 54.33 63.05 61.11 58.94 58.23 60.15 61.94 65.23 68.68 70.53 71.13 71.41 71.40 70.47 69.74 69.16 69.15 68.80 68.58 67.06 67.26 69.18 68.56 66.66 65.71 65.82 66.90 66.88 66.77 67.23 68.36 69.22 67.77 66.20
47.81 42.92 42.23 44.85 45.22 44.66 46.44 47.09 48.40 47.86 48.35 48.65 50.20 52.65 53.54 53.86 59.00 59.57 57.82 57.13 57.31 58.95 60.76 63.37 65.26 68.68 70.87 70.59 71.44 71.01 70.62 70.78 70.56 69.90 69.24 68.47 68.39 68.03 66.19 63.78 64.54 65.80 66.22 66.92 67.22 68.06 67.60 65.44 64.12
47.56 42.22 44.73 44.96 46.12 46.55 46.56 46.83 48.92 47.42 46.46 49.45 49.69 51.77 53.90 54.05 54.07 55.49 58.16 58.31 57.97 58.29 58.95 60.31 61.45 64.21 67.69 70.40 70.78 70.62 71.00 70.89 70.62 69.54 68.91 67.88 67.43 67.05 66.03 65.16 64.52 64.24 63.51 65.13 66.51 65.74 65.28 65.24 63.16
43.37 46.40 46.73 46.67 47.41 47.20 46.48 48.43 47.07 48.20 48.91 51.44 51.21 52.06 52.41 51.88 52.84 53.62 54.92 57.67 57.82 58.01 58.16 58.96 59.97 61.46 64.75 66.91 69.53 70.03 70.11 70.03 70.13 69.44 68.48 66.11 65.42 66.08 65.58 64.59 64.14 64.35 64.28 64.28 65.87 64.46 63.59 62.62 61.98
43.96 45.29 46.52 47.25 46.74 46.58 47.49 45.95 46.36 46.93 50.14 51.53 51.64 51.39 51.38 51.81 52.55 54.09 55.06 55.91 56.84 56.88 58.03 58.54 59.59 60.58 61.53 64.75 66.26 68.63 69.84 69.53 69.58 69.75 68.41 65.52 64.88 65.25 65.72 64.96 64.23 64.10 64.49 64.87 65.44 63.67 62.18 60.59 61.14
44.71 44.43 44.86 45.93 45.64 45.88 43.70 44.25 45.41 46.36 49.23 49.02 49.59 50.49 51.17 51.65 52.29 53.69 54.33 54.44 55.21 56.12 57.17 58.79 59.05 59.92 60.96 62.43 65.21 66.98 67.51 69.02 69.29 69.68 68.35 65.89 65.61 65.23 64.43 64.70 63.60 63.63 64.80 64.71 64.89 61.49 61.22 60.51 62.34
45.01 41.04 43.43 44.04 44.46 43.70 45.09 40.90 41.93 47.32 48.44 47.43 47.82 49.18 51.34 52.00 52.65 52.78 54.65 55.01 55.78 56.37 57.13 57.64 58.56 59.42 59.66 61.14 64.12 65.46 66.96 67.27 67.83 68.18 68.35 67.30 64.91 64.34 64.08 63.28 63.38 63.46 64.26 64.33 64.32 60.89 62.03 60.12 61.60
40.72 41.17 36.88 42.21 43.11 44.08 43.51 37.03 44.37 47.62 47.17 47.01 47.87 48.93 50.10 51.66 52.60 53.46 54.02 54.03 55.01 55.62 55.34 56.68 57.09 58.51 59.31 61.06 64.00 65.05 65.59 65.53 67.36 67.10 67.56 67.21 65.94 64.66 63.71 62.93 61.74 63.26 63.77 64.08 63.07 60.47 60.61 61.21 61.06
39.32 34.82 36.80 38.05 42.70 42.53 42.50 38.47 44.63 47.76 47.76 46.75 47.72 48.71 49.27 50.01 50.73 51.83 53.53 55.12 56.92 56.99 55.76 56.12 57.24 57.77 59.17 60.80 63.74 64.55 64.83 64.92 66.39 66.48 66.20 65.76 65.74 65.57 64.15 62.90 62.76 62.26 62.97 63.01 61.91 60.87 60.08 60.18 60.63
34.66 34.12 36.08 35.16 39.41 41.17 39.89 39.80 43.84 46.52 45.91 45.85 47.07 47.31 47.87 47.91 48.40 50.75 53.50 55.92 56.94 56.88 55.45 56.09 56.58 57.67 59.20 61.03 63.32 63.17 62.48 64.12 65.99 65.21 64.88 64.90 64.78 65.09 65.20 62.22 61.41 60.88 61.82 62.03 61.43 59.89 60.19 59.83 60.25
37.78 35.72 34.55 37.90 40.83 38.81 37.84 38.37 41.35 44.41 45.01 45.17 45.25 45.20 46.09 46.13 47.52 49.95 53.46 53.59 55.87 56.73 56.54 56.09 55.58 57.02 59.11 60.59 60.55 58.95 59.36 61.94 62.79 64.57 64.05 64.01 63.97 63.80 64.21 63.80 60.44 59.73 59.69 59.88 60.51 59.84 57.81 58.73 59.33
37.19 34.92 34.45 37.77 40.17 38.75 37.75 37.60 41.47 43.21 42.91 40.59 41.57 41.90 43.01 43.88 45.38 46.86 48.97 48.91 50.25 52.38 54.65 55.11 55.18 56.55 58.80 59.51 59.97 61.17 61.57 61.68 62.57 62.72 62.94 62.93 63.52 62.94 63.10 62.76 61.69 59.00 58.66 58.75 57.29 56.74 56.90 56.56 57.53
36.48 33.10 33.79 33.55 37.19 39.09 37.01 34.83 37.82 38.39 38.83 38.97 39.55 40.53 41.08 41.15 42.33 43.61 45.22 45.56 46.70 47.57 49.69 53.87 54.07 54.83 55.46 56.59 58.58 59.43 59.67 58.87 58.58 58.43 58.26 59.11 61.77 62.28 62.66 62.00 61.66 59.36 59.11 59.06 56.33 56.23 55.55 53.15 54.75
31.41 37.30 35.81 34.16 32.70 27.62 36.17 25.55 34.75 37.46 35.41 36.10 37.32 38.16 38.52 39.64 41.05 41.92 43.30 43.60 44.26 46.66 49.28 51.11 53.98 54.67 55.15 55.61 55.23 55.58 56.40 55.30 56.94 57.70 57.80 57.65 58.84 60.13 61.01 61.29 61.31 61.11 60.18 57.49 58.26 56.92 55.71 54.51 52.32
32.93 36.96 35.01 34.08 31.65 31.01 31.22 27.16 32.53 37.26 33.39 32.86 34.79 35.70 36.78 38.13 38.92 39.11 38.82 39.86 41.46 43.44 46.14 50.55 52.98 54.99 55.87 55.86 55.55 55.32 54.09 55.03 55.78 56.40 56.81 56.89 57.49 58.37 58.86 59.65 59.98 59.40 58.33 58.51 58.81 57.24 57.25 56.45 54.10
36.80 34.04 33.37 34.05 32.01 23.13 30.00 28.88 29.85 33.32 35.06 31.44 32.90 33.73 34.74 35.79 36.49 36.35 36.81 37.70 38.87 41.13 42.21 43.95 47.87 48.34 49.70 54.67 55.06 54.48 54.75 53.93 53.33 54.85 55.08 55.72 56.00 56.62 57.33 58.01 59.20 59.91 58.11 57.57 57.47 58.12 57.98 56.94 55.70
31.89 27.43 21.55 20.99 21.81 21.66 31.19 28.38 30.58 31.76 33.67 31.96 30.73 31.71 33.48 34.75 34.69 34.21 33.99 34.93 36.12 37.31 39.23 40.96 42.41 42.97 45.21 48.43 49.64 53.58 55.15 55.43 55.11 54.52 54.35 54.61 54.64 55.01 55.54 56.01 56.31 56.96 58.10 57.40 57.11 57.86 56.45 57.11 56.23
25.78 26.37 20.96 13.36 17.07 21.50 30.15 23.11 25.04 29.32 30.84 31.69 32.57 33.11 33.73 33.51 34.28 34.28 33.88 34.33 34.97 35.90 37.01 38.25 39.43 40.59 42.03 44.12 47.21 49.58 50.16 54.59 53.67 53.77 53.73 54.09 54.37 55.34 55.78 55.74 56.82 58.33 58.62 58.29 57.18 56.76 56.67 56.15 56.76
25.38 22.51 26.28 18.26 22.04 19.68 25.19 25.80 28.94 30.35 28.91 30.46 31.38 32.36 32.49 33.82 34.88 34.78 35.15 34.55 34.68 35.56 36.11 36.89 37.54 38.18 39.47 41.27 42.94 46.76 48.62 49.13 50.34 53.73 53.66 54.06 54.91 55.53 54.72 55.06 55.76 56.29 57.09 57.14 56.28 55.64 54.61 54.96 55.38
26.47 27.51 19.07 21.92 12.27 12.92 22.38 22.73 20.63 25.75 27.17 29.38 29.06 30.17 31.43 32.78 33.27 34.06 35.30 35.04 35.71 36.24 36.78 37.78 38.05 37.49 38.27 39.26 40.83 42.28 45.76 47.38 48.13 49.07 53.29 53.63 54.62 55.86 55.45 54.96 54.62 55.51 55.20 55.61 55.80 55.27 55.33 54.42 54.90
22.02 20.87 21.48 22.52 20.73 14.87 15.34 15.30 25.14 25.36 26.99 26.92 27.95 29.02 29.60 31.13 31.01 32.73 33.62 35.27 35.28 35.85 35.97 36.31 36.76 37.69 38.16 38.54 39.76 40.87 41.74 44.37 46.60 46.92 47.91 53.29 54.36 55.53 54.57 54.86 54.57 54.08 54.58 54.63 54.40 54.14 53.97 53.02 53.42
24.14 19.03 19.12 14.33 12.81 17.56 16.71 15.43 25.41 25.09 25.32 25.89 25.35 27.23 30.37 32.40 31.26 31.99 33.49 34.05 33.79 34.72 34.97 34.33 34.67 35.05 37.14 38.32 38.68 40.21 41.19 41.87 43.18 45.74 46.42 47.43 48.49 54.29 54.41 55.01 54.31 53.39 53.17 53.49 53.56 52.93 53.52 52.25 51.74
MSLP
1013.74 1013.52 1013.04 1012.23 1011.82 1010.69 1009.42 1009.24 1009.45 1009.36 1009.38 1009.18 1009.37 1008.96 1008.26 1007.47 1007.13 1007.79 1008.94 1009.10 1009.32 1009.36 1009.75 1010.64 1011.11 1011.47 1011.85 1012.15 1012.49 1012.74 1012.92 1013.12 1013.33 1013.58 1013.84 1014.21 1014.44 1014.65 1014.88 1015.05 1015.22 1015.30 1015.55 1015.76 1015.97 1016.17 1016.42 1016.58 1016.72
1013.62 1013.37 1012.68 1011.87 1010.76 1009.54 1008.59 1009.10 1009.16 1009.00 1009.26 1009.60 1009.54 1009.21 1008.84 1007.78 1008.44 1008.50 1008.78 1009.45 1009.49 1009.46 1009.69 1010.16 1011.11 1011.48 1011.81 1012.12 1012.44 1012.72 1013.00 1013.21 1013.41 1013.63 1013.91 1014.12 1014.41 1014.67 1014.84 1015.28 1015.39 1015.50 1015.67 1015.89 1016.12 1016.31 1016.64 1016.84 1016.98
1013.77 1013.43 1012.12 1011.32 1010.41 1009.10 1008.53 1008.97 1008.91 1009.33 1009.58 1009.61 1009.42 1009.28 1008.81 1008.20 1008.60 1008.56 1009.25 1009.51 1009.57 1009.64 1009.81 1010.06 1011.05 1011.44 1011.83 1012.11 1012.37 1012.60 1012.86 1013.20 1013.46 1013.67 1013.88 1014.11 1014.33 1014.64 1014.99 1015.35 1015.62 1015.93 1015.96 1016.08 1016.24 1016.51 1016.67 1016.95 1017.13
1013.40 1013.06 1013.00 1011.55 1009.82 1009.41 1009.07 1008.83 1009.23 1009.24 1009.45 1009.73 1009.60 1009.08 1009.24 1009.06 1008.89 1009.03 1009.42 1009.50 1009.49 1009.67 1009.97 1010.54 1011.14 1011.49 1011.87 1012.08 1012.44 1012.70 1012.89 1013.10 1013.40 1013.69 1013.94 1014.19 1014.44 1014.78 1015.05 1015.38 1015.77 1016.12 1016.21 1016.28 1016.38 1016.50 1016.77 1017.05 1017.22
1013.49 1012.81 1011.67 1010.76 1009.92 1009.64 1009.59 1009.45 1009.42 1009.10 1008.98 1009.08 1009.48 1008.77 1008.85 1009.08 1009.36 1009.51 1009.49 1009.57 1009.41 1009.71 1009.97 1010.56 1011.22 1011.47 1011.88 1012.14 1012.39 1012.67 1012.94 1013.18 1013.40 1013.75 1014.04 1014.26 1014.54 1014.95 1015.31 1015.43 1015.90 1016.21 1016.31 1016.46 1016.61 1016.62 1017.04 1017.28 1017.41
1013.03 1012.76 1011.24 1009.92 1009.40 1009.59 1009.56 1009.51 1009.61 1009.43 1009.01 1009.17 1009.40 1009.02 1008.60 1009.11 1009.41 1009.63 1009.74 1009.59 1009.66 1009.84 1010.12 1010.38 1011.26 1011.52 1011.77 1012.06 1012.33 1012.55 1012.84 1013.17 1013.50 1013.77 1014.08 1014.32 1014.48 1014.85 1015.23 1015.47 1015.88 1016.34 1016.44 1016.58 1016.68 1016.96 1017.25 1017.44 1017.56
1012.84 1012.23 1010.58 1010.14 1009.60 1009.51 1009.21 1009.40 1009.29 1008.87 1008.82 1008.91 1009.17 1008.72 1008.52 1009.04 1009.36 1009.78 1009.93 1009.84 1009.82 1009.85 1010.20 1010.42 1010.65 1011.28 1011.76 1011.98 1012.27 1012.52 1012.78 1013.11 1013.44 1013.74 1014.05 1014.43 1014.67 1015.00 1015.30 1015.58 1015.77 1016.36 1016.56 1016.76 1016.98 1017.17 1017.47 1017.57 1017.74
1013.44 1012.73 1011.23 1010.32 1009.33 1009.11 1009.43 1009.70 1009.53 1009.26 1008.60 1009.49 1009.33 1008.47 1008.29 1008.51 1009.30 1009.89 1010.11 1010.08 1010.05 1010.14 1010.29 1010.26 1010.38 1010.66 1010.93 1011.39 1012.13 1012.43 1012.70 1013.04 1013.36 1013.68 1014.03 1014.43 1014.85 1015.18 1015.41 1015.64 1015.92 1016.35 1016.63 1016.96 1017.14 1017.31 1017.55 1017.76 1017.95
1013.86 1012.65 1010.89 1010.38 1010.09 1009.43 1010.02 1009.85 1009.81 1009.71 1009.08 1009.29 1009.16 1008.72 1008.80 1009.40 1009.62 1009.96 1010.18 1010.18 1010.09 1010.20 1010.24 1010.32 1010.35 1010.42 1010.61 1010.88 1011.31 1012.25 1012.54 1012.88 1013.26 1013.56 1014.00 1014.37 1014.43 1014.92 1015.37 1015.48 1016.07 1016.35 1016.67 1017.04 1017.28 1017.45 1017.65 1017.97 1018.29
1013.50 1012.18 1010.87 1010.88 1010.70 1010.30 1010.32 1010.18 1009.66 1009.76 1009.12 1009.02 1008.78 1008.80 1009.04 1009.36 1009.52 1009.71 1009.81 1009.84 1009.90 1009.88 1010.03 1010.23 1010.31 1010.46 1010.54 1010.78 1011.06 1011.60 1011.86 1012.53 1012.75 1013.01 1013.47 1013.51 1013.78 1014.24 1014.89 1015.64 1016.21 1016.47 1016.80 1017.07 1017.32 1017.60 1017.80 1017.99 1018.39
1013.20 1012.10 1011.67 1011.26 1011.41 1011.32 1010.69 1010.29 1010.07 1009.32 1008.67 1008.57 1008.35 1008.52 1008.47 1008.88 1009.01 1009.15 1009.24 1009.36 1009.49 1009.76 1009.83 1010.00 1010.24 1010.33 1010.43 1010.50 1010.66 1011.10 1011.61 1012.00 1012.25 1012.51 1012.92 1013.30 1013.64 1014.27 1014.91 1015.48 1016.04 1016.37 1016.87 1016.83 1017.18 1017.49 1017.61 1017.92 1018.47
1013.27 1012.36 1012.26 1011.83 1011.93 1011.75 1011.11 1010.44 1009.49 1008.92 1008.46 1008.38 1008.68 1008.55 1008.62 1008.63 1008.53 1008.61 1008.75 1008.96 1009.23 1009.57 1009.70 1009.85 1010.04 1010.16 1010.26 1010.14 1010.30 1010.29 1010.91 1011.42 1011.92 1012.27 1012.74 1013.39 1013.74 1013.93 1014.37 1014.84 1015.28 1015.76 1016.14 1016.17 1016.77 1016.91 1018.02 1018.38 1018.49
1013.15 1012.49 1012.46 1012.25 1012.17 1011.78 1011.27 1010.17 1009.17 1008.31 1008.51 1008.42 1007.96 1008.19 1008.30 1008.35 1008.24 1008.21 1008.24 1008.52 1008.76 1009.03 1009.24 1009.40 1009.61 1009.76 1009.87 1010.03 1009.97 1010.30 1010.54 1010.84 1011.25 1011.85 1012.52 1013.11 1013.54 1013.76 1013.92 1014.39 1014.76 1015.18 1015.49 1015.71 1016.76 1017.22 1017.86 1018.32 1018.34
1013.16 1012.92 1012.44 1012.10 1011.81 1011.35 1010.70 1008.77 1008.88 1007.89 1007.73 1007.53 1007.55 1007.40 1007.54 1007.50 1007.76 1007.98 1008.01 1008.12 1008.35 1008.42 1008.64 1008.85 1009.12 1009.29 1009.53 1009.68 1009.76 1010.18 1010.58 1010.62 1010.77 1011.54 1012.06 1012.74 1013.13 1013.44 1013.83 1014.09 1014.45 1014.76 1015.25 1015.64 1016.53 1017.29 1017.72 1018.16 1018.14
1013.33 1012.87 1011.92 1011.37 1011.24 1010.77 1010.46 1007.48 1007.84 1007.22 1007.31 1006.88 1006.98 1007.10 1007.18 1007.07 1007.10 1007.30 1007.57 1007.62 1007.77 1007.78 1008.07 1008.35 1008.55 1008.79 1009.09 1009.32 1009.52 1009.77 1010.10 1010.57 1010.80 1011.00 1011.56 1012.29 1013.01 1013.45 1013.66 1014.00 1014.21 1014.44 1015.03 1015.54 1016.32 1017.18 1017.39 1018.28 1018.15
1012.89 1012.33 1010.85 1010.40 1010.98 1010.50 1010.55 1006.11 1007.09 1007.13 1007.33 1006.90 1006.87 1006.78 1006.75 1006.84 1006.83 1006.89 1007.19 1007.54 1007.64 1007.74 1007.70 1007.81 1008.03 1008.34 1008.51 1008.86 1009.21 1009.60 1009.74 1010.29 1010.68 1011.00 1011.22 1011.64 1012.38 1013.25 1013.81 1013.96 1014.06 1014.12 1014.79 1015.48 1016.11 1017.03 1017.43 1017.86 1018.43
1012.32 1010.81 1010.22 1010.20 1010.51 1010.46 1010.20 1007.23 1007.10 1007.50 1007.20 1006.74 1006.48 1006.46 1006.52 1006.70 1007.03 1007.28 1007.26 1007.44 1007.64 1007.58 1007.45 1007.44 1007.68 1007.89 1008.21 1008.50 1008.94 1009.41 1009.76 1010.13 1010.29 1010.97 1011.25 1011.53 1011.83 1012.42 1013.40 1013.96 1014.05 1014.09 1014.50 1015.30 1016.03 1016.68 1017.47 1017.80 1018.29
1011.35 1011.09 1010.38 1010.13 1010.23 1010.19 1009.63 1008.08 1007.58 1007.42 1007.16 1006.70 1006.37 1006.46 1006.64 1007.06 1007.56 1008.23 1008.15 1008.13 1007.74 1007.67 1007.43 1007.41 1007.41 1007.61 1007.98 1008.41 1008.83 1009.48 1009.94 1010.18 1010.38 1010.82 1011.16 1011.47 1011.77 1012.04 1012.79 1013.63 1014.18 1014.56 1014.83 1015.07 1015.72 1016.48 1017.35 1017.76 1018.36
1012.00 1011.54 1010.56 1009.84 1010.28 1010.12 1009.33 1008.20 1007.47 1007.12 1007.01 1006.70 1006.66 1007.04 1007.11 1007.55 1008.51 1008.75 1008.64 1008.79 1008.19 1007.90 1007.74 1007.42 1007.43 1007.51 1007.86 1008.27 1008.71 1009.38 1009.65 1010.04 1010.49 1010.68 1010.98 1011.36 1011.73 1011.94 1012.51 1013.22 1013.92 1014.56 1015.13 1015.30 1015.76 1016.28 1017.01 1017.81 1018.41
1012.06 1011.42 1010.20 1009.67 1009.52 1009.62 1008.72 1007.52 1007.20 1006.99 1007.16 1008.01 1008.03 1008.18 1008.30 1008.63 1009.03 1009.43 1009.35 1009.56 1009.39 1008.83 1008.32 1008.12 1007.99 1008.11 1008.12 1008.45 1008.74 1008.73 1009.04 1009.71 1010.13 1010.73 1010.89 1011.17 1011.46 1011.63 1012.05 1012.69 1013.42 1014.17 1015.01 1015.51 1016.12 1016.66 1017.32 1018.03 1018.28
1011.45 1011.25 1010.46 1009.83 1009.25 1008.97 1008.64 1007.30 1006.74 1007.82 1008.61 1009.17 1009.43 1009.71 1009.84 1009.86 1009.78 1010.09 1010.15 1010.24 1010.29 1009.85 1009.37 1008.66 1008.48 1008.45 1008.82 1008.91 1009.15 1009.33 1009.68 1010.20 1010.46 1010.73 1011.06 1011.35 1011.48 1011.59 1011.93 1012.39 1013.06 1013.74 1014.44 1014.93 1015.41 1016.35 1016.88 1017.97 1018.64
1010.79 1011.04 1010.36 1009.93 1009.53 1008.08 1008.20 1006.66 1006.42 1007.62 1008.99 1009.73 1010.12 1010.51 1010.80 1010.86 1010.94 1010.96 1010.94 1010.92 1011.00 1010.65 1010.15 1009.41 1008.90 1008.79 1009.12 1009.40 1009.46 1009.52 1009.62 1009.95 1010.30 1010.61 1011.11 1011.46 1011.69 1011.74 1011.98 1012.18 1012.63 1013.29 1013.96 1014.70 1015.19 1015.73 1016.23 1017.04 1017.96
1011.02 1011.01 1010.37 1009.84 1009.13 1008.53 1007.91 1007.84 1006.42 1007.46 1009.03 1010.37 1011.03 1011.52 1011.85 1011.84 1011.84 1011.88 1012.06 1011.99 1011.88 1011.39 1010.85 1010.07 1009.40 1009.09 1009.21 1009.48 1009.62 1009.77 1010.15 1010.36 1010.56 1010.90 1011.13 1011.46 1011.72 1011.86 1012.05 1012.23 1012.62 1013.02 1013.50 1014.01 1014.49 1015.31 1015.75 1016.09 1016.73
1012.10 1011.42 1010.52 1009.64 1009.02 1008.04 1007.32 1007.43 1006.73 1007.58 1008.73 1011.16 1012.08 1012.56 1012.81 1012.81 1012.79 1012.80 1012.95 1012.64 1012.36 1011.99 1011.38 1011.03 1010.52 1010.20 1010.07 1009.69 1009.74 1009.85 1010.12 1010.45 1010.74 1010.85 1011.04 1011.36 1011.70 1011.87 1012.04 1012.18 1012.44 1012.71 1013.07 1013.48 1014.00 1014.45 1014.79 1015.47 1015.80
1012.92 1012.30 1010.70 1009.46 1008.88 1007.28 1007.20 1007.78 1008.16 1009.97 1010.88 1012.18 1013.05 1013.67 1013.85 1013.78 1013.69 1013.65 1013.43 1013.18 1013.08 1012.65 1012.28 1011.96 1011.59 1011.15 1010.89 1010.62 1010.47 1010.10 1010.08 1010.21 1010.28 1010.59 1010.82 1011.04 1011.27 1011.51 1011.73 1012.04 1012.27 1012.46 1012.65 1013.02 1013.36 1013.94 1014.29 1014.75 1015.21
1014.39 1013.69 1012.49 1011.33 1009.80 1008.53 1008.93 1009.88 1011.55 1013.25 1013.74 1013.97 1014.39 1014.87 1014.97 1014.76 1014.72 1014.51 1014.44 1014.25 1014.09 1013.55 1013.22 1012.81 1012.37 1012.03 1011.60 1011.32 1011.12 1010.90 1010.72 1010.28 1010.33 1010.34 1010.46 1010.66 1010.78 1010.89 1011.21 1011.54 1011.79 1011.99 1012.29 1012.63 1013.04 1013.32 1013.62 1014.03 1014.51
1015.04 1014.35 1014.62 1013.65 1012.03 1010.84 1009.94 1012.20 1013.97 1014.83 1015.58 1015.71 1015.94 1016.22 1016.30 1016.12 1015.81 1015.45 1015.20 1014.91 1014.64 1014.03 1014.16 1013.43 1013.37 1013.30 1012.51 1012.19 1012.02 1011.55 1011.24 1011.00 1010.73 1010.31 1010.20 1010.20 1010.24 1010.38 1010.79 1011.15 1011.27 1011.46 1011.70 1012.04 1012.39 1012.58 1012.95 1013.43 1013.74
1016.06 1016.41 1014.93 1013.71 1012.48 1011.31 1010.81 1012.58 1014.74 1015.84 1016.56 1017.06 1017.07 1017.32 1017.26 1017.29 1016.92 1016.35 1015.82 1015.47 1015.13 1014.56 1014.83 1013.84 1014.39 1014.11 1013.11 1012.66 1012.63 1012.31 1011.84 1011.40 1011.04 1010.66 1009.93 1009.87 1009.88 1009.97 1010.15 1010.45 1010.77 1010.96 1011.23 1011.52 1011.78 1011.95 1012.16 1012.64 1013.00
1017.53 1017.09 1016.66 1015.42 1014.44 1013.47 1013.00 1015.60 1017.55 1017.80 1018.13 1018.53 1018.63 1018.67 1018.44 1018.11 1017.79 1017.01 1016.77 1016.28 1015.97 1015.78 1015.40 1015.17 1015.35 1014.44 1013.45 1013.07 1013.03 1012.70 1012.27 1011.72 1011.22 1010.81 1010.47 1009.65 1009.44 1009.42 1009.67 1009.84 1009.97 1010.27 1010.58 1010.96 1011.20 1011.32 1011.52 1011.66 1012.14
1018.89 1019.72 1019.07 1017.39 1016.45 1016.24 1016.23 1017.99 1019.30 1019.62 1019.89 1019.92 1019.85 1019.58 1019.13 1018.74 1018.44 1017.71 1017.16 1016.93 1016.67 1016.30 1016.34 1016.50 1016.32 1014.89 1014.13 1013.50 1013.57 1012.94 1012.42 1011.98 1011.38 1010.78 1010.55 1010.24 1009.77 1009.00 1008.93 1009.08 1009.32 1009.60 1009.85 1010.10 1010.31 1010.52 1010.65 1010.67 1011.12
Wind_Speed
3 2 1 3 5 4 5 6 2 6 4 3 1 7 8 6 5 3 4 4 3 9 14 16 15 16 17 15 14 13 11 12 14 15 16 16 15 15 15 16 15 14 11 9 12 13 12 11 11
2 2 2 1 4 6 4 4 10 9 2 2 4 8 7 9 2 1 5 3 3 9 12 15 15 17 17 17 15 14 14 13 13 15 16 16 15 15 15 14 14 13 12 10 11 12 12 10 10
1 3 3 3 3 6 3 6 6 4 4 4 4 4 3 1 2 2 3 1 5 9 10 11 16 17 17 17 16 16 15 15 14 13 13 14 15 16 16 15 12 10 10 8 8 11 13 10 10
2 3 3 6 9 7 5 4 6 6 6 4 3 5 3 2 1 1 2 2 6 9 9 11 12 16 16 17 16 15 15 16 15 14 13 13 13 15 17 15 11 8 8 8 9 12 11 8 10
1 2 5 6 8 5 9 7 6 8 5 7 5 5 3 2 2 2 1 3 7 9 8 10 10 14 15 16 15 16 15 15 15 14 15 16 15 15 15 15 13 10 10 10 11 13 11 11 13
3 3 6 8 8 5 7 11 11 12 10 6 5 6 5 2 5 3 3 5 5 9 8 8 8 10 12 15 16 16 15 15 14 15 15 15 16 17 16 16 15 11 10 10 9 11 11 12 14
4 4 6 9 9 7 6 6 15 14 15 13 1 7 2 6 7 4 4 4 7 8 7 8 9 11 9 12 13 15 15 15 15 15 14 15 14 15 15 15 16 13 10 10 10 11 10 10 15
3 4 4 6 6 7 3 6 3 13 14 3 4 7 9 2 10 7 4 4 5 6 7 9 10 10 12 13 11 12 13 13 14 14 13 13 13 13 14 12 12 11 11 11 11 12 11 13 15
2 6 9 7 6 3 3 8 5 2 11 8 9 7 2 3 8 8 6 6 7 6 7 7 9 10 11 11 12 12 12 13 13 12 11 15 12 14 13 7 11 11 11 12 11 11 11 13 12
7 6 6 3 4 5 4 9 6 7 13 13 13 12 9 5 10 12 13 11 11 10 9 8 8 9 11 9 11 13 13 12 13 15 17 12 11 10 10 9 9 10 11 10 12 11 14 12 8
5 8 3 4 6 7 8 9 8 11 16 14 13 16 16 15 15 15 17 16 15 12 8 9 8 9 10 10 9 6 7 8 9 14 14 9 7 9 8 7 8 8 9 9 9 11 9 9 8
8 11 13 6 1 4 10 8 14 18 20 15 12 13 9 12 13 17 17 17 17 14 14 13 13 10 11 8 9 9 8 9 8 11 15 8 5 10 10 8 10 10 9 12 10 8 8 9 9
13 13 10 9 9 11 14 20 22 19 15 21 22 18 18 18 18 15 14 15 15 15 15 14 13 13 12 12 9 8 9 9 12 11 14 9 9 9 10 10 9 10 10 10 9 8 9 8 9
4 9 14 13 15 14 18 26 21 14 17 21 22 22 21 22 22 18 15 15 16 16 15 14 14 13 11 12 12 9 8 10 11 10 13 13 10 8 8 10 10 10 10 10 10 8 9 7 10
8 13 15 16 13 12 9 25 17 22 18 21 21 18 14 14 16 18 16 12 12 12 12 12 14 14 13 13 12 9 9 7 8 10 16 17 11 10 10 9 10 10 10 13 11 8 11 7 9
8 11 9 6 4 3 8 29 17 3 5 9 13 15 14 10 10 10 9 10 8 10 12 12 10 12 15 12 11 8 8 8 7 8 8 16 17 13 9 9 9 11 10 10 10 9 8 11 10
7 13 15 11 5 6 13 21 9 6 13 16 15 11 11 12 7 7 6 6 5 7 9 10 11 13 14 13 10 9 9 8 9 7 7 11 15 17 12 8 9 11 9 11 11 11 10 9 10
10 15 16 15 3 11 15 24 23 21 19 19 17 15 13 9 3 4 5 5 2 4 3 6 7 10 11 9 8 6 6 6 5 6 7 9 9 14 13 8 6 6 9 11 11 12 10 9 10
16 18 22 20 17 19 21 24 23 20 19 19 15 13 12 7 3 6 6 6 4 6 5 3 5 8 9 8 8 7 8 8 5 5 10 9 9 13 11 10 8 5 5 7 12 11 13 8 11
16 19 22 21 15 14 18 22 19 21 13 5 5 3 3 4 6 9 9 9 11 10 7 6 5 5 6 6 5 4 8 7 8 5 5 7 11 13 12 11 12 11 7 6 9 9 9 6 10
17 17 22 23 21 19 18 24 22 3 5 5 6 7 8 8 9 10 11 11 11 12 11 7 5 5 4 5 5 4 5 3 3 3 2 3 7 9 10 10 10 12 11 11 13 11 13 6 6
25 19 20 22 18 18 6 16 17 11 6 6 8 9 9 10 11 12 12 14 13 11 10 10 6 5 4 4 3 4 5 5 4 4 3 4 6 7 9 10 11 13 11 12 13 12 13 10 10
24 21 20 22 22 22 20 12 15 11 9 6 9 11 11 12 13 15 15 14 14 13 11 10 9 7 5 5 5 5 4 1 2 3 5 6 6 6 7 8 10 11 10 13 16 15 15 12 13
15 14 17 19 16 15 21 19 14 12 10 9 12 13 13 14 15 16 15 15 14 14 14 14 13 13 14 6 3 4 5 6 4 6 5 5 4 5 6 6 8 11 12 13 13 17 19 15 13
15 17 8 10 9 11 5 10 6 9 13 14 14 13 14 14 15 16 17 16 16 17 16 13 15 15 13 12 12 7 4 5 6 7 6 6 5 5 8 8 7 6 8 13 14 16 16 17 15
21 14 10 10 8 9 7 7 7 13 13 16 16 15 15 16 15 17 17 14 15 15 15 16 16 15 15 14 12 10 12 4 4 6 6 5 6 8 11 11 11 15 16 12 13 13 13 16 15
10 11 14 13 18 15 10 7 9 12 12 11 12 12 13 14 14 15 16 16 15 15 15 15 15 15 14 14 11 11 9 9 8 7 7 6 7 8 10 11 14 15 16 14 14 13 15 15 16
6 14 9 7 8 14 14 6 8 10 11 9 11 11 12 12 13 14 14 15 15 17 15 18 15 15 13 13 11 10 10 10 9 9 8 9 10 13 12 12 13 15 15 17 15 11 15 16 14
16 5 7 6 5 8 12 6 10 11 11 11 12 11 11 11 14 13 12 13 13 14 16 17 16 16 16 15 13 11 10 11 9 8 10 7 10 11 12 14 14 14 15 16 16 15 16 17 17
8 10 15 6 5 6 6 6 7 10 12 13 15 14 12 10 11 11 11 10 12 14 14 13 14 16 16 15 15 14 12 11 10 10 10 10 10 11 11 14 13 13 14 16 17 19 16 17 18
Wind_Direction
309 314 224 204 213 245 237 220 276 204 212 186 168 225 239 289 257 352 106 161 104 160 170 172 159 157 157 157 155 156 157 159 162 163 160 163 163 162 158 155 145 138 133 127 118 115 107 111 123
313 227 218 180 244 232 221 207 219 225 162 263 232 228 241 235 249 109 168 87 139 153 171 176 165 164 164 160 161 161 163 166 166 167 169 165 168 167 158 157 146 136 142 146 136 124 122 128 137
179 313 236 230 233 239 256 203 227 233 214 239 230 245 276 239 180 149 61 2 192 171 177 167 166 169 168 164 166 167 168 169 170 174 163 172 174 161 146 145 131 143 147 150 146 134 121 138 148
218 174 150 244 230 236 241 198 184 204 199 213 235 236 206 282 258 87 12 138 170 173 173 137 177 176 173 168 170 172 177 169 169 173 176 175 167 155 147 133 121 140 143 140 150 132 127 164 143
141 218 237 248 255 266 247 255 192 209 195 186 189 220 243 206 234 272 171 171 157 162 166 166 180 176 179 179 174 179 182 180 176 171 175 168 161 150 143 131 131 143 154 150 161 134 153 159 130
183 287 238 248 239 241 247 229 230 237 219 176 216 232 238 127 208 178 201 172 169 165 170 173 176 189 189 183 186 184 184 185 180 176 178 170 157 151 148 141 139 151 161 156 158 152 164 165 136
267 235 264 272 272 266 240 202 218 223 227 224 275 233 232 209 197 167 157 179 174 172 183 187 191 188 193 191 190 193 188 187 181 176 172 166 150 148 151 149 143 164 167 159 176 171 172 171 141
265 272 257 237 260 266 185 189 250 225 231 104 213 236 242 205 177 171 168 169 180 185 201 203 200 200 198 195 194 192 193 189 184 172 169 152 145 148 150 143 152 166 166 170 176 171 168 141 138
180 239 254 260 227 287 167 219 190 265 237 211 200 235 110 87 165 188 203 211 204 200 198 202 210 209 214 210 189 194 195 189 184 183 157 151 168 170 163 159 158 175 161 176 183 186 174 128 120
226 246 251 295 291 293 259 250 261 236 222 231 233 232 225 201 193 207 213 217 213 211 204 215 212 214 213 209 214 206 202 205 198 194 178 189 189 182 180 156 162 163 169 185 189 191 141 164 143
192 248 275 272 270 272 273 250 240 247 252 249 255 254 244 239 233 226 225 224 222 222 228 214 223 232 218 214 211 206 208 201 206 199 187 191 179 166 177 169 176 173 183 184 187 155 171 166 146
249 247 256 280 311 295 270 292 257 247 257 282 273 268 269 235 227 229 230 228 228 233 242 249 240 229 227 222 214 214 201 202 200 199 185 169 173 177 181 178 178 179 182 182 177 182 155 161 156
244 265 265 263 279 272 269 257 261 261 264 253 260 255 252 252 252 240 234 239 240 244 244 245 234 223 219 221 219 207 217 204 201 195 185 178 175 185 182 184 184 183 184 178 172 177 152 169 153
345 258 271 278 270 263 265 264 263 260 257 256 260 249 249 250 244 244 239 242 242 242 242 237 230 226 219 214 214 203 210 206 206 196 190 183 186 185 183 185 188 187 181 188 172 169 154 171 173
279 284 274 255 257 257 268 271 247 269 274 268 262 259 249 247 236 234 240 241 243 241 240 235 229 222 217 215 211 207 201 201 204 200 196 190 180 190 182 184 189 190 187 185 166 171 168 157 183
265 267 273 111 180 225 206 273 291 326 326 302 277 253 266 256 238 225 231 254 256 259 247 238 227 215 208 207 202 201 201 199 195 193 199 198 187 187 196 187 188 191 185 182 181 162 176 178 180
211 274 276 297 200 264 216 277 307 240 291 291 295 268 244 285 266 275 273 267 279 279 261 237 221 214 206 203 190 193 199 200 201 184 190 206 201 193 186 198 192 193 177 183 183 174 173 181 183
288 274 277 269 248 272 266 267 272 271 281 283 285 283 276 274 312 350 330 325 332 350 292 249 220 211 201 190 178 177 193 200 186 183 190 204 205 196 192 180 193 199 199 182 179 172 174 178 177
280 274 274 278 279 267 272 273 279 279 276 275 294 285 277 266 49 35 38 12 10 36 36 45 204 193 181 179 169 183 189 192 188 180 193 196 205 202 195 194 159 156 195 201 187 174 159 178 164
258 269 272 280 273 264 270 273 276 285 291 307 303 1 70 104 67 44 48 29 19 23 31 51 97 150 169 171 193 185 186 197 201 197 190 199 211 202 195 183 177 172 165 176 166 173 166 161 171
255 255 271 278 293 278 275 273 263 155 134 102 73 74 60 50 51 44 41 39 21 18 6 21 88 125 144 158 158 127 112 113 165 175 183 185 221 200 196 190 183 175 181 176 167 169 171 151 187
281 286 284 276 277 273 264 281 281 171 150 103 81 63 54 48 47 45 40 36 25 16 13 15 18 121 132 142 158 170 195 195 198 210 191 178 206 200 197 196 186 183 182 177 179 172 167 153 184
280 290 282 278 272 274 262 253 262 161 179 110 76 65 57 54 48 45 39 37 29 23 14 13 38 39 139 162 175 175 183 212 131 174 181 182 192 199 198 197 188 185 184 189 184 182 181 178 177
295 299 295 265 255 253 250 245 256 204 180 124 92 71 61 57 54 51 42 38 32 27 27 24 25 32 27 23 166 188 199 195 196 202 198 196 189 192 197 192 199 191 188 189 193 194 189 189 193
336 325 295 259 232 253 330 281 288 79 117 113 95 75 64 57 53 47 39 33 29 29 26 24 22 27 21 22 23 355 249 245 232 215 209 195 199 205 210 199 196 206 194 203 193 197 196 201 204
302 280 277 295 291 309 301 318 74 80 84 96 88 76 66 57 50 45 40 33 27 25 25 23 20 20 20 16 12 13 11 301 240 229 218 205 207 221 223 218 215 217 215 200 203 203 205 201 208
327 290 327 274 260 260 267 110 111 118 78 66 66 60 48 40 36 38 33 33 32 30 20 29 18 13 20 16 6 4 6 4 344 264 226 224 225 216 212 217 220 221 220 213 200 203 201 209 209
305 316 301 243 272 263 251 114 38 81 85 64 48 37 40 29 31 28 26 28 21 29 22 29 18 14 17 14 5 358 354 357 349 335 246 226 230 226 216 211 222 223 223 223 220 213 208 206 212
307 316 302 288 315 286 272 92 20 34 43 43 33 30 29 29 19 25 23 18 23 23 19 21 7 8 16 12 358 353 351 347 347 349 343 273 237 234 223 224 218 217 221 222 220 215 211 208 214
86 47 12 352 2 302 278 83 32 45 41 41 31 19 7 10 12 8 14 17 14 17 17 10 1 5 4 6 354 350 348 347 349 347 340 327 321 246 230 232 231 223 218 219 221 225 217 207 209